Погода в Александровском

Россия / Томская область     60°25′34″N   77°52′06″E
темп.,
°C
ветер,
м/с
пор.,
м/с
влажн.,
%
обл.,
%
осадки,
мм/ч
давл.,
гПа
погр.,
м
18 апреля, вс
вс1801:00−7с61187100 2.3 1011560
04:00−9с5973100 0.1 1013547
07:00−11с487841 0.1 1015484
10:00−10ссв476983 0.0 1015663
13:00−8ссв5758100 0.0 10151111
16:00−6ссв7855100 0.0 10161494
19:00−8с7963100 0.0 10181309
22:00−12с61174100 0.0 1020914
19 апреля, пн
пн1901:00−13ссз51078100 0.0 1021819
04:00−14ссз6118166 0.0 1021766
07:00−14ссз61282100 0.0 1022921
10:00−14сз7106993 0.0 1024847
13:00−11сз8106138 0.0 1025956
16:00−9сз8116082 0.0 10261068
19:00−8сз7106897 0.0 10261105
22:00−10сз6127717 0.0 1027644
20 апреля, вт
вт2001:00−12сз5108617 0.0 1027459
04:00−13зсз499246 0.0 1026287
07:00−12зюз3890100 0.0 1024243
10:00−7юз51172100 0.0 1021685
13:00−5ююз71388100 0.9 1016915
16:00−4юз61188100 1.6 10131000
19:00−3ююв4994100 2.9 1010599
22:00−4вюв4895100 1.0 1011325
21 апреля, ср
ср2101:00−5всв499484 1.1 1015284
04:00−7св499594 0.0 1020276
07:00−8ссв4109454 0.0 1024283
10:00−4св477858 0.0 1027577
13:00−1св456183 0.0 10301250
16:000ссв455653 0.0 10321320
19:00−1св246025 0.0 1033811
22:00−6ююз008666 0.0 103510
22 апреля, чт
чт2201:00−8зюз119413 0.0 103610
04:00−9юз119615 0.0 103812
07:00−9з129513 0.0 103942
10:00−2зсз23737 0.0 1040357
13:00+2зсз23615 0.0 1040898
16:00+3сз135919 0.0 1041984
19:00+3всв116820 0.0 1041151
22:00−2юв23905 0.0 104335